GFSNE_850_temp_057.txt.gz
Temp
-0 -1 -1 -2 -2 -2 -3 -3 -4 -4 -3 -3 -4 -4 -4 -4 -4 -4 -4 -4 -4 -4 -4 -4 -5 -5 -5 -5 -5 -5 -5 -4 -5 -5 -5 -5 -4 -3
-1 -1 -2 -2 -3 -3 -3 -4 -5 -5 -5 -4 -5 -5 -5 -5 -5 -5 -5 -5 -5 -5 -5 -6 -6 -6 -6 -6 -5 -5 -5 -5 -5 -5 -5 -5 -5 -4
-2 -2 -3 -3 -4 -4 -4 -5 -5 -5 -5 -5 -5 -5 -5 -5 -6 -6 -6 -6 -6 -6 -7 -7 -7 -6 -6 -6 -6 -6 -5 -5 -6 -5 -5 -6 -5 -4
-3 -4 -4 -4 -4 -5 -5 -5 -5 -5 -5 -6 -6 -6 -6 -7 -8 -7 -7 -7 -7 -7 -7 -7 -7 -7 -7 -7 -6 -6 -6 -6 -5 -5 -6 -6 -5 -5
-4 -4 -4 -5 -5 -5 -5 -5 -5 -6 -6 -7 -8 -8 -8 -8 -9 -9 -8 -8 -8 -8 -8 -8 -7 -7 -7 -7 -7 -7 -6 -6 -6 -6 -6 -6 -6 -5
-4 -5 -5 -5 -5 -5 -5 -6 -6 -7 -8 -8 -9 -9 -10 -10 -9 -9 -9 -9 -9 -8 -8 -8 -8 -7 -7 -7 -7 -7 -6 -6 -6 -6 -6 -6 -6 -5
-5 -5 -6 -6 -5 -6 -6 -7 -7 -8 -9 -9 -9 -10 -10 -10 -10 -10 -10 -10 -9 -9 -9 -8 -8 -8 -7 -7 -7 -7 -7 -7 -6 -6 -6 -6 -6 -6
-6 -5 -6 -6 -6 -6 -7 -7 -8 -9 -9 -9 -10 -11 -11 -11 -10 -11 -10 -10 -10 -9 -10 -8 -8 -8 -7 -7 -7 -7 -7 -7 -6 -6 -6 -6 -6 -5
-6 -6 -6 -6 -7 -7 -7 -8 -8 -8 -9 -10 -11 -11 -11 -11 -11 -11 -11 -11 -10 -10 -10 -9 -8 -8 -7 -7 -7 -7 -7 -7 -7 -6 -6 -6 -6 -5
-6 -6 -6 -7 -7 -8 -8 -8 -9 -9 -9 -10 -12 -11 -11 -11 -11 -11 -11 -11 -10 -9 -9 -9 -8 -8 -7 -7 -7 -7 -7 -7 -7 -7 -7 -6 -6 -6
-6 -6 -7 -7 -8 -8 -9 -9 -9 -8 -9 -10 -11 -11 -11 -11 -11 -11 -11 -11 -10 -10 -9 -9 -9 -8 -7 -7 -7 -7 -7 -7 -7 -7 -7 -7 -6 -6
-7 -7 -8 -8 -9 -9 -9 -9 -9 -9 -9 -10 -10 -11 -11 -11 -11 -11 -11 -11 -11 -10 -9 -9 -9 -9 -8 -8 -7 -8 -7 -7 -6 -7 -7 -7 -7 -6
-7 -8 -8 -9 -9 -9 -9 -10 -10 -10 -11 -11 -11 -11 -11 -12 -12 -11 -11 -11 -11 -10 -9 -10 -9 -8 -9 -8 -8 -8 -8 -7 -6 -6 -7 -7 -7 -6
-8 -8 -8 -9 -9 -10 -10 -10 -10 -11 -11 -11 -12 -12 -12 -12 -12 -12 -11 -11 -10 -10 -9 -8 -8 -9 -9 -8 -8 -8 -7 -6 -6 -6 -7 -7 -6 -6
-8 -8 -9 -9 -9 -10 -10 -10 -11 -11 -11 -12 -12 -12 -12 -12 -12 -12 -12 -11 -10 -10 -9 -9 -8 -8 -8 -8 -8 -8 -7 -7 -6 -6 -6 -6 -6 -6
-8 -8 -9 -9 -9 -10 -10 -10 -11 -11 -11 -12 -12 -12 -12 -12 -12 -12 -12 -11 -11 -10 -9 -9 -9 -8 -8 -8 -8 -8 -7 -7 -6 -7 -7 -7 -7 -6
-8 -9 -9 -10 -10 -10 -10 -10 -10 -11 -11 -11 -12 -12 -12 -13 -12 -12 -12 -12 -12 -11 -10 -9 -8 -8 -8 -8 -8 -8 -7 -6 -6 -7 -7 -7 -7 -7
-9 -9 -10 -10 -10 -10 -10 -10 -10 -11 -11 -11 -12 -12 -13 -13 -13 -12 -12 -13 -12 -12 -11 -10 -10 -8 -8 -9 -8 -8 -7 -7 -7 -7 -7 -7 -7 -6
-10 -10 -10 -10 -10 -10 -10 -10 -10 -11 -11 -11 -11 -12 -13 -13 -13 -13 -13 -13 -12 -12 -12 -11 -11 -10 -9 -8 -8 -8 -8 -8 -7 -7 -7 -7 -7 -7
-9 -10 -10 -10 -10 -10 -10 -10 -10 -10 -11 -11 -12 -12 -13 -13 -13 -14 -13 -13 -13 -13 -12 -12 -11 -10 -10 -10 -9 -8 -8 -8 -8 -8 -8 -8 -8 -7
-8 -9 -9 -9 -10 -9 -10 -10 -10 -10 -11 -11 -12 -12 -13 -13 -13 -14 -14 -13 -13 -13 -13 -12 -11 -10 -10 -9 -9 -9 -8 -8 -9 -9 -8 -8 -8 -8
-8 -8 -9 -9 -9 -9 -9 -9 -10 -10 -10 -11 -12 -12 -13 -13 -13 -14 -14 -14 -14 -13 -13 -12 -11 -9 -9 -9 -9 -9 -8 -9 -9 -9 -9 -8 -8 -8
-8 -8 -8 -8 -9 -9 -9 -10 -10 -10 -10 -11 -12 -12 -13 -12 -13 -13 -14 -14 -13 -12 -12 -11 -11 -10 -10 -9 -9 -9 -9 -9 -9 -9 -9 -9 -9 -8

GFSNE_850_temp_060.txt.gz
Temp
-1 -1 -1 -1 -2 -2 -3 -3 -3 -4 -4 -4 -4 -5 -5 -4 -5 -5 -5 -5 -5 -5 -5 -5 -5 -6 -6 -6 -5 -5 -5 -5 -5 -4 -4 -4 -4 -4
-1 -2 -2 -2 -3 -3 -3 -4 -4 -4 -5 -5 -5 -5 -5 -5 -5 -5 -6 -6 -6 -6 -6 -6 -6 -7 -7 -7 -7 -6 -6 -6 -5 -5 -4 -4 -4 -4
-2 -2 -3 -4 -4 -4 -4 -4 -5 -5 -6 -5 -5 -5 -6 -6 -6 -6 -7 -7 -7 -8 -8 -7 -7 -7 -7 -7 -7 -7 -7 -6 -6 -6 -6 -5 -5 -5
-2 -3 -4 -5 -5 -5 -5 -5 -5 -5 -6 -6 -6 -6 -7 -7 -7 -8 -8 -8 -9 -9 -8 -8 -8 -8 -7 -7 -7 -7 -7 -6 -6 -6 -6 -6 -6 -6
-3 -3 -4 -4 -5 -5 -5 -5 -6 -6 -6 -7 -7 -7 -7 -7 -8 -9 -9 -9 -9 -9 -9 -9 -8 -8 -8 -8 -7 -7 -7 -7 -6 -6 -6 -6 -6 -6
-4 -5 -5 -5 -5 -5 -6 -6 -6 -6 -7 -8 -8 -8 -8 -9 -10 -10 -10 -10 -10 -9 -9 -8 -8 -8 -8 -7 -7 -7 -7 -7 -7 -6 -6 -6 -6 -6
-5 -5 -5 -6 -6 -6 -6 -6 -7 -7 -8 -8 -8 -9 -9 -10 -11 -11 -11 -10 -10 -9 -9 -9 -10 -8 -8 -8 -8 -7 -7 -7 -7 -7 -6 -6 -6 -6
-5 -5 -6 -6 -6 -6 -7 -7 -7 -8 -8 -9 -9 -9 -10 -11 -11 -11 -11 -11 -11 -10 -10 -9 -9 -8 -8 -8 -8 -7 -7 -7 -7 -7 -7 -6 -6 -6
-5 -5 -6 -6 -7 -7 -7 -7 -8 -8 -9 -9 -9 -9 -10 -11 -12 -11 -11 -11 -11 -10 -10 -10 -9 -8 -8 -7 -7 -7 -7 -7 -7 -7 -7 -7 -7 -7
-6 -6 -7 -7 -7 -7 -8 -8 -8 -9 -9 -9 -9 -10 -11 -11 -12 -12 -11 -11 -11 -10 -10 -10 -9 -8 -8 -7 -7 -7 -7 -7 -7 -7 -7 -7 -7 -6
-6 -7 -7 -7 -7 -8 -8 -9 -9 -9 -9 -9 -10 -11 -11 -11 -12 -12 -12 -12 -11 -11 -10 -10 -9 -9 -8 -7 -7 -7 -7 -7 -8 -8 -7 -7 -7 -6
-7 -7 -7 -8 -8 -8 -9 -9 -9 -9 -9 -10 -10 -10 -11 -11 -12 -12 -12 -12 -12 -11 -10 -11 -9 -9 -9 -8 -8 -8 -8 -8 -8 -7 -6 -7 -7 -7
-7 -7 -8 -8 -8 -9 -9 -9 -9 -10 -10 -11 -11 -11 -11 -11 -12 -12 -12 -12 -12 -11 -10 -10 -9 -9 -9 -9 -8 -8 -8 -7 -7 -7 -7 -7 -7 -7
-7 -7 -8 -8 -9 -9 -9 -10 -10 -10 -11 -11 -11 -11 -11 -12 -12 -12 -12 -12 -12 -11 -10 -10 -9 -9 -8 -8 -8 -7 -7 -8 -7 -7 -7 -7 -7 -7
-7 -8 -8 -8 -9 -9 -9 -10 -10 -10 -11 -11 -11 -11 -12 -12 -12 -12 -11 -12 -11 -11 -10 -10 -9 -9 -8 -8 -8 -8 -8 -7 -7 -6 -6 -6 -6 -7
-8 -8 -8 -8 -9 -9 -9 -10 -10 -10 -11 -11 -11 -11 -12 -12 -12 -12 -12 -12 -11 -11 -10 -10 -9 -9 -8 -8 -8 -8 -8 -8 -7 -7 -7 -7 -7 -7
-8 -9 -9 -9 -9 -9 -10 -10 -10 -10 -11 -11 -11 -11 -12 -12 -12 -12 -12 -12 -12 -12 -11 -10 -9 -9 -8 -8 -8 -8 -8 -6 -6 -7 -7 -7 -7 -7
-8 -9 -9 -9 -9 -10 -10 -10 -10 -10 -10 -11 -11 -11 -12 -12 -12 -13 -13 -13 -13 -13 -12 -11 -10 -9 -9 -9 -9 -8 -8 -7 -7 -7 -7 -7 -7 -7
-8 -8 -9 -9 -10 -10 -10 -10 -10 -10 -11 -11 -11 -11 -12 -12 -12 -13 -13 -13 -13 -13 -12 -12 -11 -11 -11 -10 -9 -9 -8 -8 -8 -7 -7 -7 -7 -7
-8 -8 -8 -8 -9 -10 -10 -10 -10 -10 -10 -11 -11 -11 -12 -12 -12 -13 -13 -13 -13 -13 -13 -12 -11 -11 -11 -11 -10 -9 -9 -9 -8 -8 -8 -8 -7 -8
-7 -8 -8 -8 -8 -9 -10 -10 -10 -10 -10 -10 -11 -11 -12 -12 -12 -13 -13 -13 -13 -13 -13 -12 -11 -10 -10 -10 -9 -9 -9 -9 -9 -9 -9 -8 -8 -8
-7 -7 -8 -8 -8 -8 -9 -9 -10 -10 -10 -10 -11 -11 -12 -12 -12 -13 -13 -13 -13 -13 -12 -12 -11 -10 -9 -9 -9 -9 -9 -9 -9 -9 -9 -8 -8 -8
-7 -7 -7 -8 -8 -8 -8 -9 -9 -9 -10 -10 -10 -11 -12 -12 -13 -12 -13 -13 -13 -13 -12 -11 -11 -10 -10 -9 -9 -9 -9 -10 -10 -10 -9 -9 -9 -9

GFSNE_850_temp_063.txt.gz
Temp
-1 -1 -1 -1 -2 -2 -3 -3 -3 -4 -4 -5 -5 -5 -5 -6 -5 -5 -5 -5 -5 -5 -6 -6 -6 -6 -7 -7 -6 -6 -6 -5 -5 -5 -4 -4 -4 -3
-1 -1 -2 -2 -3 -4 -4 -4 -4 -4 -5 -5 -6 -6 -6 -6 -6 -6 -6 -6 -6 -6 -7 -7 -7 -7 -7 -8 -7 -7 -7 -6 -6 -6 -5 -5 -4 -4
-1 -2 -2 -3 -3 -4 -4 -5 -5 -5 -5 -5 -6 -6 -6 -7 -7 -7 -7 -7 -7 -8 -8 -8 -8 -8 -8 -8 -8 -8 -7 -7 -7 -7 -6 -6 -5 -4
-2 -2 -3 -4 -4 -4 -5 -5 -5 -6 -6 -6 -6 -7 -7 -7 -7 -7 -7 -8 -9 -9 -9 -9 -9 -9 -8 -8 -8 -8 -7 -7 -7 -7 -7 -7 -6 -6
-2 -3 -4 -4 -4 -5 -5 -5 -6 -6 -6 -6 -7 -7 -7 -7 -7 -8 -8 -9 -9 -10 -10 -9 -9 -9 -8 -8 -8 -8 -8 -7 -7 -7 -6 -6 -6 -6
-3 -4 -5 -5 -5 -5 -6 -6 -6 -6 -7 -7 -8 -8 -8 -8 -8 -9 -9 -10 -10 -9 -9 -9 -10 -9 -9 -9 -8 -8 -8 -7 -7 -7 -7 -7 -6 -6
-4 -4 -5 -5 -5 -6 -6 -7 -7 -7 -8 -8 -8 -8 -8 -9 -10 -10 -11 -10 -10 -10 -10 -9 -9 -9 -8 -8 -8 -8 -8 -8 -7 -7 -7 -7 -7 -7
-4 -5 -5 -5 -6 -6 -7 -7 -7 -8 -8 -9 -9 -9 -9 -9 -10 -11 -11 -11 -12 -11 -11 -10 -10 -9 -8 -8 -8 -8 -7 -7 -7 -7 -7 -7 -7 -7
-5 -6 -5 -6 -6 -7 -7 -7 -8 -8 -9 -9 -9 -9 -9 -10 -11 -11 -12 -12 -12 -11 -11 -11 -10 -9 -8 -8 -7 -7 -7 -7 -7 -7 -7 -7 -7 -7
-6 -6 -6 -7 -7 -7 -8 -8 -9 -9 -9 -9 -9 -9 -10 -10 -11 -12 -12 -12 -12 -11 -11 -11 -10 -9 -8 -7 -7 -7 -7 -7 -7 -7 -7 -7 -7 -7
-7 -6 -7 -7 -7 -8 -8 -9 -9 -9 -9 -9 -9 -10 -11 -11 -12 -12 -12 -12 -12 -12 -11 -11 -10 -9 -8 -7 -7 -7 -8 -8 -8 -8 -8 -8 -7 -7
-7 -7 -7 -7 -8 -8 -9 -9 -9 -9 -9 -9 -10 -10 -11 -11 -11 -12 -12 -13 -13 -12 -12 -12 -10 -10 -10 -7 -8 -8 -8 -8 -8 -8 -8 -7 -7 -7
-7 -7 -7 -8 -8 -8 -9 -9 -9 -10 -10 -10 -10 -10 -11 -11 -12 -12 -12 -12 -12 -12 -11 -12 -11 -10 -10 -9 -8 -7 -8 -8 -8 -8 -7 -7 -6 -7
-7 -7 -7 -8 -8 -8 -9 -9 -9 -10 -10 -10 -11 -11 -11 -11 -12 -12 -12 -12 -12 -12 -12 -12 -11 -11 -10 -9 -8 -7 -7 -7 -7 -7 -7 -7 -7 -7
-7 -7 -7 -8 -8 -8 -9 -9 -9 -10 -10 -11 -11 -11 -11 -11 -12 -12 -11 -12 -12 -12 -12 -11 -11 -11 -10 -9 -9 -8 -8 -6 -6 -7 -7 -7 -7 -7
-7 -8 -8 -8 -8 -8 -9 -9 -9 -10 -10 -10 -10 -11 -11 -11 -12 -12 -12 -12 -12 -11 -11 -11 -11 -10 -9 -9 -9 -9 -8 -8 -6 -7 -7 -7 -7 -7
-8 -8 -8 -8 -9 -9 -9 -9 -9 -10 -10 -10 -11 -11 -11 -12 -12 -12 -12 -12 -12 -12 -11 -11 -11 -11 -10 -9 -9 -9 -8 -8 -7 -7 -7 -7 -7 -7
-8 -8 -8 -8 -9 -9 -9 -9 -10 -10 -10 -10 -11 -11 -11 -12 -12 -12 -13 -13 -13 -12 -12 -12 -12 -10 -9 -9 -9 -9 -8 -8 -8 -7 -7 -7 -7 -8
-7 -8 -8 -8 -8 -8 -9 -10 -10 -10 -10 -11 -11 -11 -11 -12 -12 -12 -12 -13 -13 -13 -12 -12 -12 -12 -11 -10 -9 -9 -9 -9 -9 -8 -7 -7 -7 -7
-7 -7 -7 -8 -8 -8 -8 -9 -10 -10 -10 -10 -11 -11 -12 -12 -12 -12 -12 -12 -13 -13 -12 -12 -12 -12 -11 -11 -10 -9 -9 -9 -9 -9 -8 -8 -8 -8
-7 -8 -8 -8 -7 -8 -8 -9 -9 -10 -10 -10 -10 -11 -11 -11 -12 -12 -12 -12 -13 -13 -12 -11 -11 -11 -10 -10 -10 -9 -9 -9 -9 -9 -9 -8 -8 -8
-8 -8 -8 -8 -7 -8 -8 -8 -9 -9 -10 -10 -10 -10 -11 -11 -12 -12 -12 -12 -13 -13 -12 -11 -11 -10 -10 -10 -10 -9 -9 -10 -10 -10 -9 -9 -8 -8
-9 -8 -8 -8 -8 -8 -8 -8 -8 -9 -9 -10 -10 -10 -11 -11 -12 -12 -12 -12 -12 -12 -12 -11 -11 -11 -10 -10 -9 -10 -10 -10 -10 -10 -10 -9 -9 -9

GFSNE_850_temp_066.txt.gz
Temp
-0 -1 -1 -2 -2 -2 -3 -3 -3 -4 -4 -4 -5 -5 -5 -6 -5 -5 -5 -5 -5 -5 -5 -5 -6 -6 -7 -7 -7 -7 -6 -6 -6 -5 -5 -5 -4 -4
-1 -1 -2 -2 -2 -3 -3 -4 -4 -5 -5 -5 -5 -6 -6 -6 -6 -6 -6 -6 -6 -6 -6 -6 -6 -7 -8 -8 -8 -7 -7 -7 -6 -6 -6 -5 -5 -4
-1 -2 -2 -2 -3 -3 -4 -4 -5 -5 -5 -5 -5 -6 -6 -7 -7 -7 -7 -6 -7 -7 -8 -8 -8 -9 -9 -9 -9 -9 -8 -8 -7 -7 -7 -6 -6 -5
-2 -2 -2 -3 -4 -4 -4 -5 -5 -5 -6 -6 -6 -7 -7 -7 -7 -7 -7 -7 -8 -8 -9 -9 -9 -9 -9 -9 -9 -8 -8 -8 -8 -8 -8 -7 -7 -6
-2 -2 -3 -4 -4 -5 -5 -5 -5 -6 -6 -7 -7 -7 -8 -8 -8 -8 -8 -8 -8 -9 -9 -9 -9 -9 -9 -9 -9 -8 -8 -8 -8 -8 -7 -7 -7 -7
-3 -3 -4 -4 -5 -5 -6 -5 -6 -7 -7 -7 -7 -8 -8 -8 -8 -8 -8 -8 -8 -9 -9 -10 -10 -10 -9 -9 -9 -9 -8 -8 -8 -7 -7 -7 -7 -7
-3 -4 -4 -5 -5 -6 -6 -6 -6 -7 -7 -7 -8 -8 -8 -9 -9 -9 -9 -9 -9 -9 -9 -9 -10 -9 -9 -9 -9 -8 -8 -8 -8 -8 -7 -7 -7 -7
-4 -4 -5 -5 -6 -6 -6 -6 -7 -7 -8 -8 -8 -9 -9 -9 -9 -10 -10 -10 -12 -10 -10 -10 -10 -9 -9 -9 -8 -8 -7 -7 -7 -7 -7 -7 -7 -7
-4 -5 -5 -6 -6 -6 -6 -7 -7 -8 -8 -9 -9 -9 -9 -9 -10 -10 -11 -11 -11 -11 -11 -11 -10 -10 -9 -9 -8 -7 -7 -7 -7 -7 -7 -7 -7 -7
-5 -5 -6 -6 -7 -7 -7 -7 -8 -8 -9 -9 -9 -9 -10 -10 -10 -11 -11 -11 -11 -11 -11 -11 -10 -9 -9 -8 -7 -8 -8 -7 -7 -8 -8 -7 -7 -7
-5 -6 -6 -6 -7 -7 -7 -8 -8 -8 -9 -10 -10 -10 -10 -11 -11 -11 -11 -12 -11 -10 -11 -11 -11 -10 -8 -7 -8 -8 -8 -8 -8 -8 -7 -7 -8 -8
-6 -6 -6 -6 -7 -7 -8 -8 -8 -8 -9 -10 -10 -10 -11 -11 -11 -11 -12 -12 -12 -12 -12 -12 -11 -11 -11 -8 -7 -7 -8 -8 -8 -8 -8 -8 -8 -8
-6 -6 -6 -6 -7 -8 -8 -8 -8 -9 -10 -10 -10 -10 -11 -11 -11 -11 -11 -12 -12 -12 -11 -13 -12 -12 -12 -10 -8 -7 -8 -8 -7 -7 -8 -7 -7 -8
-6 -6 -7 -7 -7 -8 -8 -8 -8 -9 -9 -10 -10 -10 -11 -11 -11 -11 -11 -12 -12 -12 -12 -12 -12 -12 -12 -11 -10 -8 -8 -7 -7 -7 -7 -7 -7 -7
-6 -6 -7 -7 -7 -7 -8 -8 -8 -9 -9 -10 -10 -10 -10 -11 -11 -11 -12 -12 -11 -11 -12 -12 -12 -12 -12 -11 -10 -9 -10 -7 -8 -8 -7 -7 -7 -7
-6 -7 -7 -8 -8 -8 -8 -8 -8 -9 -9 -10 -10 -10 -11 -11 -11 -12 -12 -12 -11 -10 -11 -12 -12 -12 -12 -11 -10 -10 -9 -9 -8 -8 -7 -7 -7 -7
-7 -7 -7 -8 -8 -8 -8 -9 -9 -9 -9 -10 -10 -10 -11 -11 -11 -12 -12 -12 -12 -11 -11 -11 -12 -12 -11 -11 -10 -9 -9 -9 -8 -8 -7 -7 -8 -8
-7 -7 -7 -7 -7 -7 -8 -8 -9 -9 -9 -10 -10 -10 -11 -11 -12 -12 -12 -12 -12 -12 -12 -12 -12 -11 -10 -10 -10 -10 -9 -9 -9 -8 -8 -8 -8 -8
-7 -7 -7 -7 -7 -7 -7 -8 -8 -9 -10 -10 -10 -11 -11 -11 -12 -12 -12 -12 -12 -12 -12 -12 -12 -12 -12 -11 -10 -10 -10 -9 -9 -9 -8 -8 -8 -8
-8 -8 -8 -8 -8 -8 -8 -8 -8 -8 -9 -10 -10 -10 -11 -11 -11 -12 -12 -12 -12 -12 -11 -12 -12 -12 -12 -11 -11 -9 -10 -9 -9 -9 -9 -9 -8 -8
-8 -8 -8 -8 -8 -8 -8 -8 -8 -8 -9 -10 -10 -10 -10 -11 -11 -12 -12 -12 -12 -12 -12 -11 -11 -11 -11 -11 -10 -10 -10 -10 -10 -9 -9 -9 -8 -8
-9 -9 -9 -9 -9 -8 -8 -8 -8 -8 -9 -9 -10 -10 -10 -11 -11 -12 -12 -12 -12 -12 -12 -11 -11 -11 -10 -10 -10 -10 -10 -10 -10 -10 -10 -9 -9 -9
-11 -10 -10 -9 -9 -8 -9 -9 -9 -9 -9 -9 -10 -10 -10 -10 -11 -11 -12 -12 -12 -12 -12 -11 -11 -11 -11 -10 -10 -10 -10 -10 -10 -10 -10 -10 -10 -9

GFSNE_850_temp_072.txt.gz
Temp
1 0 0 1 0 -0 -0 -0 -0 -0 1 1 1 -1 -2 -3 -3 -4 -5 -5 -5 -5 -5 -5 -5 -5 -5 -5 -5 -6 -7 -7 -6 -6 -5 -5 -5 -4
1 0 -0 -0 -0 -1 -1 -1 -1 -1 -1 -0 -0 -1 -2 -3 -3 -5 -6 -6 -6 -6 -5 -5 -5 -5 -5 -6 -6 -8 -8 -8 -7 -7 -6 -6 -5 -5
0 -0 -0 -1 -1 -1 -1 -1 -1 -1 -1 -1 -1 -1 -3 -4 -4 -5 -5 -6 -6 -7 -7 -5 -6 -6 -6 -6 -6 -7 -7 -8 -9 -8 -8 -7 -6 -6
0 -0 -1 -1 -1 -1 -1 -2 -2 -2 -2 -2 -3 -2 -3 -4 -5 -5 -6 -6 -7 -7 -7 -6 -6 -6 -6 -6 -7 -7 -7 -8 -8 -9 -9 -8 -8 -7
-0 -0 -1 -1 -1 -1 -2 -2 -2 -2 -2 -3 -4 -3 -4 -5 -5 -5 -6 -6 -7 -7 -7 -7 -8 -7 -7 -7 -8 -8 -8 -8 -8 -8 -9 -9 -9 -9
-1 -1 -1 -1 -2 -2 -2 -2 -2 -3 -3 -4 -5 -5 -5 -5 -5 -5 -6 -6 -6 -6 -7 -7 -8 -8 -8 -8 -9 -9 -8 -9 -8 -8 -8 -8 -8 -8
-1 -2 -2 -2 -3 -3 -3 -3 -3 -4 -5 -6 -6 -5 -5 -4 -5 -5 -6 -7 -7 -7 -7 -7 -7 -7 -7 -8 -8 -8 -9 -9 -8 -8 -8 -7 -7 -8
-1 -2 -2 -2 -3 -4 -4 -4 -4 -6 -6 -5 -5 -6 -5 -5 -5 -6 -6 -7 -7 -7 -7 -8 -8 -8 -7 -7 -8 -9 -9 -8 -8 -8 -7 -7 -7 -7
-2 -2 -2 -2 -3 -4 -5 -5 -6 -6 -6 -6 -6 -6 -6 -7 -7 -7 -7 -7 -7 -7 -8 -8 -8 -8 -8 -8 -8 -9 -8 -8 -8 -8 -8 -7 -7 -7
-3 -3 -3 -3 -3 -4 -4 -5 -5 -6 -6 -7 -7 -6 -7 -7 -8 -8 -8 -9 -9 -9 -8 -8 -8 -8 -8 -8 -9 -9 -8 -8 -8 -8 -8 -8 -8 -7
-3 -3 -3 -4 -4 -4 -5 -6 -6 -6 -7 -7 -7 -7 -8 -8 -9 -9 -9 -10 -9 -8 -8 -8 -9 -9 -9 -8 -8 -8 -8 -8 -8 -8 -8 -7 -7 -7
-5 -5 -5 -5 -5 -5 -6 -6 -6 -7 -7 -7 -8 -8 -8 -9 -9 -9 -10 -10 -10 -9 -8 -9 -9 -9 -9 -9 -8 -9 -8 -8 -9 -8 -8 -8 -7 -7
-7 -7 -6 -6 -6 -6 -6 -7 -7 -7 -7 -7 -7 -8 -8 -8 -9 -10 -10 -10 -10 -10 -9 -10 -10 -10 -10 -9 -9 -9 -9 -9 -8 -8 -8 -8 -7 -7
-8 -8 -7 -7 -7 -7 -7 -7 -7 -7 -7 -7 -8 -8 -8 -8 -9 -9 -10 -10 -10 -10 -10 -10 -11 -11 -11 -10 -10 -9 -9 -9 -9 -8 -8 -8 -7 -7
-8 -7 -7 -7 -7 -7 -7 -7 -7 -7 -7 -7 -7 -8 -8 -9 -9 -9 -10 -10 -10 -11 -11 -11 -12 -11 -11 -10 -10 -9 -9 -9 -9 -8 -8 -8 -8 -7
-8 -7 -7 -7 -7 -7 -7 -7 -7 -8 -7 -7 -8 -8 -8 -8 -9 -9 -10 -10 -10 -11 -10 -11 -12 -12 -11 -11 -10 -10 -9 -9 -9 -8 -9 -9 -8 -8
-8 -7 -7 -7 -7 -7 -7 -7 -7 -8 -8 -8 -8 -8 -8 -9 -9 -9 -10 -10 -10 -10 -10 -10 -10 -11 -11 -11 -11 -10 -10 -9 -9 -9 -9 -8 -8 -7
-8 -8 -8 -7 -7 -7 -7 -7 -7 -7 -8 -8 -9 -9 -9 -9 -9 -9 -10 -10 -10 -10 -10 -10 -10 -10 -10 -10 -10 -10 -10 -9 -9 -9 -9 -9 -8 -7
-11 -11 -11 -10 -8 -8 -7 -8 -7 -8 -8 -8 -8 -9 -9 -9 -9 -10 -10 -10 -10 -10 -10 -10 -10 -10 -10 -10 -9 -10 -10 -10 -10 -9 -9 -9 -9 -9
-13 -13 -13 -12 -11 -10 -9 -8 -8 -8 -8 -8 -8 -8 -9 -9 -9 -10 -10 -10 -10 -10 -10 -10 -10 -10 -10 -10 -11 -10 -10 -10 -10 -10 -9 -9 -9 -8
-15 -14 -15 -14 -13 -12 -11 -10 -9 -9 -9 -8 -9 -9 -9 -9 -9 -10 -10 -10 -10 -11 -10 -10 -10 -11 -11 -11 -11 -10 -9 -10 -10 -10 -10 -10 -9 -8
-16 -16 -16 -16 -15 -14 -13 -12 -11 -10 -9 -9 -9 -9 -9 -9 -9 -10 -10 -10 -11 -11 -11 -10 -11 -11 -11 -11 -10 -10 -9 -9 -10 -10 -10 -10 -10 -10
-18 -18 -18 -17 -17 -17 -15 -13 -12 -12 -11 -10 -10 -10 -9 -9 -9 -10 -10 -11 -11 -11 -11 -11 -11 -11 -11 -10 -11 -10 -10 -10 -10 -10 -9 -10 -10 -10

GFSNE_850_temp_075.txt.gz
Temp
2 2 2 2 2 2 2 1 1 1 1 2 2 2 2 1 -1 -2 -3 -3 -4 -4 -5 -5 -5 -5 -5 -5 -5 -5 -6 -7 -7 -6 -6 -5 -5 -4
2 2 2 2 2 1 1 1 1 1 1 1 1 1 1 0 -0 -2 -3 -3 -4 -5 -5 -6 -6 -5 -5 -5 -5 -5 -6 -7 -7 -7 -7 -6 -6 -5
2 2 2 1 1 1 1 1 1 1 0 0 1 0 -0 -1 -1 -2 -3 -4 -4 -4 -5 -6 -6 -6 -6 -6 -5 -6 -6 -6 -7 -8 -8 -8 -7 -6
2 2 2 2 1 1 1 1 0 0 -0 -0 -0 -0 -1 -1 -2 -3 -4 -4 -4 -4 -5 -6 -6 -6 -7 -6 -6 -6 -7 -7 -7 -7 -9 -9 -8 -8
2 1 1 1 1 1 1 0 0 0 -0 -0 -1 -1 -1 -2 -2 -4 -4 -4 -4 -4 -5 -5 -6 -6 -7 -7 -7 -7 -7 -8 -8 -8 -8 -8 -9 -9
1 1 1 0 0 0 0 -0 -0 -1 -1 -1 -1 -2 -3 -3 -4 -4 -4 -4 -5 -4 -5 -5 -6 -6 -7 -7 -7 -7 -7 -8 -8 -8 -8 -8 -8 -8
0 0 0 0 -0 -1 -1 -1 -2 -2 -2 -2 -2 -3 -4 -4 -4 -4 -5 -5 -5 -5 -5 -6 -6 -6 -6 -6 -6 -6 -7 -8 -8 -8 -8 -8 -8 -8
-0 -0 -0 -0 -0 -1 -1 -2 -3 -3 -4 -4 -4 -4 -4 -5 -5 -5 -5 -5 -5 -5 -6 -6 -6 -6 -7 -7 -6 -7 -7 -8 -8 -8 -8 -7 -7 -7
-1 -1 -1 -1 -1 -1 -2 -2 -3 -4 -4 -5 -5 -5 -5 -5 -5 -5 -6 -6 -6 -6 -6 -7 -7 -7 -7 -7 -7 -7 -8 -8 -8 -8 -8 -7 -7 -7
-2 -2 -2 -2 -2 -2 -3 -3 -3 -3 -4 -5 -6 -6 -6 -6 -6 -6 -7 -7 -7 -7 -8 -8 -7 -7 -7 -7 -7 -8 -8 -8 -8 -8 -8 -8 -8 -7
-3 -3 -3 -4 -4 -4 -4 -4 -4 -4 -5 -5 -5 -6 -6 -6 -6 -7 -7 -8 -8 -8 -8 -8 -7 -8 -8 -8 -8 -8 -8 -8 -8 -8 -8 -8 -8 -7
-4 -5 -5 -5 -5 -6 -6 -6 -6 -5 -5 -6 -6 -6 -6 -6 -7 -7 -8 -9 -9 -8 -8 -8 -8 -8 -8 -8 -8 -8 -8 -8 -8 -8 -8 -8 -8 -8
-5 -6 -6 -7 -7 -7 -7 -7 -7 -6 -6 -6 -6 -6 -6 -7 -7 -8 -8 -9 -9 -9 -9 -9 -9 -9 -9 -9 -9 -9 -9 -9 -8 -8 -8 -8 -7 -8
-7 -7 -7 -7 -6 -6 -7 -7 -7 -6 -7 -7 -7 -6 -7 -7 -7 -7 -8 -8 -9 -9 -9 -9 -9 -10 -10 -10 -10 -9 -9 -9 -9 -9 -9 -8 -8 -7
-7 -7 -7 -6 -6 -6 -6 -7 -7 -7 -7 -7 -7 -7 -7 -7 -7 -7 -8 -8 -9 -9 -9 -10 -10 -10 -10 -10 -10 -10 -9 -9 -9 -9 -8 -8 -8 -7
-8 -8 -7 -7 -7 -7 -6 -6 -6 -7 -7 -7 -7 -7 -7 -7 -8 -8 -8 -8 -9 -9 -9 -10 -10 -10 -10 -10 -10 -10 -10 -10 -9 -9 -8 -8 -8 -8
-9 -9 -8 -8 -8 -8 -7 -7 -7 -7 -7 -7 -7 -7 -7 -7 -8 -8 -8 -8 -9 -9 -9 -9 -9 -10 -10 -10 -10 -10 -10 -10 -9 -9 -8 -8 -8 -8
-10 -10 -10 -10 -10 -10 -9 -8 -7 -7 -7 -7 -7 -7 -8 -8 -8 -8 -8 -9 -9 -9 -9 -9 -9 -9 -9 -9 -9 -9 -9 -9 -9 -9 -9 -9 -8 -8
-11 -11 -12 -12 -12 -12 -11 -11 -9 -8 -8 -7 -7 -7 -8 -8 -8 -8 -8 -9 -9 -10 -10 -9 -9 -9 -9 -9 -9 -9 -10 -10 -10 -10 -9 -9 -9 -8
-12 -12 -13 -13 -13 -13 -13 -13 -11 -10 -8 -8 -8 -8 -8 -8 -8 -8 -8 -9 -9 -9 -9 -9 -9 -9 -9 -9 -10 -9 -10 -9 -10 -10 -10 -10 -9 -8
-14 -14 -14 -14 -15 -15 -15 -14 -14 -12 -11 -10 -9 -9 -8 -8 -8 -8 -8 -9 -9 -9 -9 -9 -9 -9 -10 -10 -11 -10 -9 -9 -9 -9 -10 -10 -9 -9
-15 -16 -16 -16 -16 -16 -16 -16 -15 -14 -13 -12 -11 -10 -9 -9 -8 -8 -9 -9 -9 -10 -10 -10 -9 -10 -10 -10 -10 -9 -9 -9 -9 -9 -9 -9 -10 -10
-17 -17 -17 -17 -17 -17 -17 -17 -17 -17 -16 -14 -13 -11 -10 -9 -9 -9 -9 -9 -9 -10 -10 -10 -10 -10 -10 -10 -9 -10 -9 -9 -9 -9 -9 -9 -9 -9

GFSNE_850_temp_078.txt.gz
Temp
5 4 3 3 3 2 2 2 2 1 1 1 1 1 1 1 1 1 0 -0 -1 -2 -3 -3 -4 -4 -5 -5 -6 -5 -5 -6 -7 -7 -6 -6 -5 -5
3 3 2 2 2 2 2 2 1 1 1 1 1 1 1 1 1 0 -0 -1 -2 -3 -4 -4 -4 -4 -5 -5 -6 -6 -6 -6 -6 -7 -7 -7 -7 -6
2 3 2 2 2 2 1 1 1 1 1 1 0 0 0 0 -0 -0 -1 -1 -2 -3 -5 -4 -4 -4 -5 -6 -6 -6 -6 -6 -6 -6 -7 -8 -8 -7
2 2 2 2 2 2 1 1 1 1 1 0 0 0 -0 -0 -0 -1 -2 -2 -3 -3 -4 -4 -4 -4 -5 -6 -6 -7 -7 -7 -7 -7 -7 -9 -9 -8
2 2 2 2 1 1 1 1 1 0 0 0 -0 -0 -1 -1 -1 -2 -2 -3 -3 -4 -4 -4 -4 -5 -5 -6 -6 -6 -7 -7 -7 -8 -8 -8 -8 -9
2 1 1 1 1 0 0 0 -0 -0 -0 -1 -1 -2 -2 -2 -3 -3 -3 -3 -4 -5 -5 -5 -5 -5 -5 -6 -6 -6 -6 -7 -7 -7 -8 -8 -8 -8
1 1 1 0 0 0 -0 -0 -1 -1 -1 -1 -2 -2 -3 -3 -3 -4 -4 -5 -5 -5 -5 -5 -5 -6 -6 -6 -6 -6 -7 -7 -7 -7 -8 -8 -8 -8
1 1 0 -0 -0 -1 -1 -1 -1 -1 -2 -2 -3 -4 -4 -4 -4 -5 -5 -5 -6 -5 -5 -6 -6 -6 -6 -7 -6 -7 -7 -7 -7 -8 -8 -8 -8 -8
0 -0 -1 -2 -2 -2 -2 -2 -2 -2 -3 -3 -4 -4 -4 -4 -5 -5 -6 -6 -6 -6 -6 -6 -6 -7 -7 -7 -7 -7 -7 -7 -8 -8 -8 -8 -8 -8
-1 -2 -2 -2 -3 -3 -3 -3 -3 -3 -4 -4 -4 -4 -4 -5 -6 -6 -6 -6 -6 -6 -6 -7 -7 -7 -7 -8 -7 -7 -7 -8 -8 -8 -8 -8 -8 -8
-2 -2 -2 -3 -3 -4 -4 -5 -5 -5 -5 -5 -5 -5 -5 -5 -6 -6 -6 -6 -7 -6 -7 -8 -8 -8 -8 -8 -8 -8 -8 -8 -8 -8 -8 -8 -8 -8
-1 -2 -3 -4 -4 -5 -6 -7 -7 -6 -6 -6 -6 -6 -6 -6 -6 -6 -6 -7 -7 -7 -6 -8 -8 -8 -9 -8 -8 -9 -8 -9 -9 -8 -8 -8 -8 -8
-3 -3 -3 -4 -5 -6 -7 -7 -7 -7 -7 -7 -7 -7 -6 -6 -6 -6 -6 -6 -7 -7 -7 -8 -8 -9 -9 -9 -9 -9 -9 -9 -9 -9 -9 -8 -8 -8
-4 -5 -5 -5 -6 -6 -6 -6 -6 -7 -7 -7 -7 -6 -6 -7 -6 -6 -7 -7 -7 -7 -8 -8 -9 -9 -9 -9 -9 -9 -10 -10 -9 -9 -9 -9 -8 -8
-5 -6 -6 -6 -7 -7 -7 -7 -7 -7 -7 -7 -8 -7 -7 -7 -7 -7 -7 -7 -7 -8 -8 -8 -9 -9 -9 -10 -10 -10 -10 -10 -9 -9 -9 -9 -8 -8
-7 -7 -7 -8 -9 -9 -8 -8 -8 -7 -7 -7 -7 -7 -7 -7 -7 -7 -7 -7 -8 -8 -8 -8 -9 -9 -9 -10 -10 -10 -9 -10 -9 -9 -9 -9 -8 -8
-8 -8 -9 -10 -10 -10 -10 -10 -9 -8 -8 -7 -7 -7 -7 -7 -7 -7 -7 -8 -8 -8 -8 -9 -9 -9 -9 -9 -10 -9 -9 -10 -9 -9 -9 -8 -8 -8
-9 -10 -11 -11 -11 -12 -13 -12 -12 -11 -9 -9 -8 -7 -7 -7 -7 -7 -8 -8 -8 -8 -8 -9 -9 -9 -9 -9 -9 -9 -9 -9 -9 -9 -9 -9 -8 -8
-12 -12 -12 -12 -13 -13 -13 -14 -14 -13 -12 -11 -10 -8 -8 -8 -8 -7 -8 -8 -8 -8 -9 -9 -9 -9 -9 -9 -9 -9 -9 -9 -10 -10 -9 -9 -9 -8
-13 -13 -13 -14 -14 -14 -15 -15 -15 -15 -15 -13 -11 -11 -9 -8 -8 -7 -8 -8 -8 -8 -9 -9 -9 -9 -9 -9 -9 -9 -9 -9 -9 -9 -10 -9 -9 -9
-14 -14 -14 -15 -15 -16 -16 -16 -16 -16 -16 -15 -13 -12 -11 -10 -9 -8 -8 -8 -8 -8 -9 -9 -9 -9 -9 -9 -9 -9 -9 -9 -9 -9 -9 -9 -9 -8
-15 -16 -16 -16 -16 -17 -17 -17 -17 -17 -17 -17 -15 -14 -13 -12 -11 -9 -9 -8 -8 -9 -9 -9 -9 -10 -10 -10 -10 -10 -10 -9 -9 -9 -9 -9 -9 -9
-16 -17 -17 -17 -18 -18 -18 -18 -18 -18 -18 -18 -17 -16 -14 -13 -12 -11 -9 -8 -8 -9 -9 -10 -10 -10 -10 -10 -10 -10 -9 -9 -9 -9 -9 -9 -9 -9

GFSNE_850_temp_084.txt.gz
Temp
6 6 5 4 5 4 4 3 3 2 2 2 2 3 2 1 1 1 0 0 0 -0 -0 -0 -1 -2 -2 -3 -3 -4 -4 -5 -5 -5 -6 -7 -6 -6
6 6 5 4 4 4 3 3 2 2 2 2 2 2 1 1 1 0 0 -0 -0 -0 -1 -1 -2 -4 -4 -4 -4 -4 -5 -5 -5 -5 -6 -7 -7 -7
6 5 4 4 4 3 2 2 2 2 1 1 1 1 1 0 0 -0 -0 -1 -1 -1 -1 -2 -3 -3 -3 -4 -4 -4 -5 -5 -5 -6 -6 -7 -7 -7
5 5 5 3 3 2 2 2 2 1 1 1 1 1 0 0 -0 -1 -1 -1 -2 -2 -2 -3 -3 -4 -4 -4 -4 -5 -5 -5 -6 -6 -6 -7 -7 -7
5 4 4 2 2 2 2 1 1 1 1 0 0 -0 -1 -1 -1 -1 -1 -2 -2 -2 -3 -3 -3 -3 -4 -5 -5 -5 -5 -6 -6 -6 -7 -7 -7 -7
3 2 2 2 2 2 1 1 1 1 0 -0 -0 -1 -1 -1 -2 -2 -2 -3 -3 -3 -3 -4 -4 -4 -5 -6 -6 -6 -6 -6 -6 -6 -7 -7 -7 -7
2 2 2 2 2 1 1 1 0 -0 -0 -1 -1 -2 -2 -2 -3 -3 -4 -4 -4 -4 -4 -4 -4 -5 -5 -5 -6 -6 -6 -6 -7 -7 -7 -7 -7 -8
2 2 2 2 1 1 1 0 -0 -1 -1 -2 -2 -3 -3 -3 -4 -5 -6 -6 -5 -5 -5 -4 -5 -5 -5 -6 -6 -6 -6 -7 -7 -7 -8 -8 -8 -8
1 1 1 1 1 1 0 -1 -1 -2 -3 -3 -4 -4 -4 -4 -5 -6 -6 -6 -7 -6 -6 -5 -6 -6 -6 -6 -7 -7 -7 -7 -8 -8 -8 -8 -8 -8
1 1 1 0 -0 -1 -1 -1 -1 -2 -3 -3 -4 -4 -5 -5 -6 -6 -7 -7 -7 -6 -6 -6 -6 -6 -6 -6 -7 -7 -8 -8 -8 -8 -8 -8 -8 -8
0 0 -0 -1 -1 -1 -2 -2 -3 -3 -4 -4 -4 -5 -5 -5 -6 -7 -7 -8 -8 -7 -6 -6 -6 -6 -7 -6 -6 -7 -8 -8 -8 -8 -9 -9 -9 -9
-0 -1 -1 -1 -2 -3 -4 -4 -4 -5 -5 -4 -5 -5 -6 -6 -6 -6 -7 -8 -7 -8 -8 -7 -6 -7 -7 -6 -7 -7 -8 -8 -9 -9 -9 -9 -9 -9
-2 -2 -3 -3 -4 -4 -5 -5 -6 -7 -7 -7 -7 -7 -7 -7 -7 -8 -8 -8 -8 -7 -7 -7 -7 -7 -7 -8 -8 -8 -8 -9 -9 -9 -10 -10 -10 -9
-3 -4 -4 -5 -5 -6 -6 -7 -8 -8 -8 -8 -8 -8 -9 -9 -8 -8 -8 -8 -8 -8 -8 -7 -7 -7 -8 -8 -8 -8 -8 -9 -9 -10 -10 -10 -10 -10
-4 -5 -6 -6 -7 -7 -8 -9 -9 -9 -9 -9 -9 -9 -9 -9 -9 -8 -8 -7 -7 -7 -7 -7 -7 -7 -8 -8 -8 -8 -9 -8 -9 -9 -10 -10 -10 -10
-6 -6 -7 -8 -8 -9 -10 -11 -11 -11 -11 -11 -11 -11 -10 -9 -9 -9 -9 -8 -8 -7 -7 -7 -7 -7 -8 -8 -8 -9 -9 -9 -9 -9 -10 -9 -9 -9
-7 -8 -9 -9 -10 -11 -12 -12 -13 -13 -13 -13 -13 -12 -11 -11 -10 -9 -8 -9 -8 -7 -7 -7 -7 -8 -8 -8 -9 -9 -9 -9 -9 -9 -10 -9 -9 -9
-10 -10 -11 -11 -12 -13 -13 -14 -14 -14 -14 -14 -14 -14 -14 -13 -12 -11 -10 -10 -9 -7 -7 -7 -8 -8 -8 -9 -9 -9 -9 -9 -9 -9 -10 -10 -9 -9
-12 -12 -12 -13 -13 -14 -15 -15 -15 -16 -16 -16 -16 -16 -15 -14 -13 -13 -12 -12 -10 -9 -8 -8 -8 -8 -8 -9 -8 -9 -9 -9 -9 -9 -9 -10 -9 -9
-13 -14 -14 -14 -15 -15 -16 -16 -17 -17 -17 -17 -17 -17 -17 -16 -15 -14 -13 -13 -12 -11 -9 -8 -8 -8 -8 -8 -9 -9 -9 -9 -9 -9 -9 -9 -9 -9
-15 -15 -16 -16 -16 -17 -17 -17 -18 -18 -18 -18 -18 -18 -18 -18 -17 -16 -15 -14 -13 -12 -11 -9 -8 -8 -9 -9 -10 -9 -9 -10 -10 -10 -10 -9 -9 -9
-16 -17 -17 -17 -18 -18 -18 -19 -19 -19 -19 -19 -19 -19 -19 -18 -18 -17 -16 -15 -14 -13 -12 -9 -8 -8 -9 -10 -9 -10 -10 -10 -10 -10 -10 -9 -9 -9
-18 -18 -19 -19 -19 -19 -20 -20 -20 -20 -20 -20 -20 -19 -19 -19 -18 -18 -17 -16 -15 -13 -13 -10 -9 -9 -9 -10 -10 -10 -10 -10 -10 -10 -9 -9 -9 -9

GFSNE_850_temp_087.txt.gz
Temp
8 8 7 6 6 6 5 5 5 3 3 3 3 3 2 2 2 1 1 1 0 -0 -0 -0 -1 -1 -1 -1 -2 -2 -3 -4 -4 -5 -5 -5 -5 -6
8 7 6 6 6 6 4 4 3 3 2 2 2 2 2 2 1 1 1 0 -0 -0 -0 -1 -1 -1 -1 -2 -2 -3 -3 -4 -5 -5 -6 -6 -6 -6
7 8 6 6 6 5 4 3 3 2 2 2 2 1 1 1 1 0 0 -0 -0 -1 -1 -1 -2 -2 -2 -2 -3 -3 -3 -4 -5 -5 -6 -6 -6 -6
7 7 6 6 5 4 3 3 2 2 2 1 1 1 1 0 1 0 0 -1 -1 -1 -2 -2 -2 -3 -3 -3 -4 -4 -4 -4 -5 -5 -5 -6 -6 -7
7 6 5 4 4 3 2 2 2 2 1 1 1 1 0 0 0 -0 -1 -1 -2 -2 -3 -3 -3 -3 -3 -4 -4 -4 -4 -5 -5 -6 -6 -6 -6 -7
6 6 5 4 3 2 2 2 2 1 1 1 0 0 -0 -0 -1 -1 -2 -2 -2 -3 -3 -4 -4 -4 -4 -4 -4 -4 -5 -5 -6 -6 -6 -6 -7 -7
5 4 3 3 2 1 2 2 1 1 1 0 -0 -1 -1 -1 -2 -2 -3 -3 -3 -3 -3 -4 -5 -4 -5 -4 -4 -5 -6 -5 -6 -6 -6 -6 -7 -7
4 3 2 1 1 2 1 1 1 0 0 -0 -1 -2 -2 -2 -3 -3 -4 -4 -5 -4 -4 -5 -6 -6 -5 -5 -5 -5 -6 -6 -6 -7 -7 -7 -7 -8
3 2 1 0 1 0 1 0 -0 -1 -1 -2 -2 -2 -3 -3 -4 -4 -5 -6 -6 -6 -8 -7 -6 -6 -6 -6 -6 -6 -7 -7 -7 -7 -7 -8 -8 -8
1 -0 -1 -1 -1 -1 -1 -1 -1 -1 -2 -3 -3 -3 -4 -5 -6 -6 -7 -7 -7 -7 -8 -8 -7 -6 -6 -6 -7 -7 -7 -7 -7 -7 -8 -8 -8 -8
-1 -2 -1 -2 -2 -1 -1 -2 -2 -2 -3 -3 -3 -4 -4 -6 -6 -7 -7 -8 -8 -6 -8 -8 -7 -7 -6 -6 -7 -7 -7 -7 -8 -8 -8 -8 -9 -9
-2 -2 -2 -2 -2 -2 -3 -3 -3 -4 -4 -4 -4 -5 -5 -6 -7 -8 -8 -8 -8 -8 -8 -8 -8 -8 -8 -6 -6 -6 -6 -7 -8 -8 -9 -9 -9 -9
-3 -3 -3 -3 -4 -4 -4 -4 -5 -5 -6 -7 -7 -7 -7 -7 -8 -9 -9 -8 -8 -8 -8 -8 -8 -8 -8 -7 -7 -7 -7 -8 -9 -9 -9 -9 -9 -10
-4 -4 -4 -5 -5 -4 -5 -6 -7 -8 -8 -8 -8 -8 -8 -8 -8 -9 -9 -9 -9 -9 -8 -9 -8 -8 -8 -8 -8 -8 -8 -8 -9 -9 -9 -10 -10 -10
-5 -5 -5 -5 -5 -6 -7 -8 -9 -9 -9 -9 -10 -10 -10 -10 -10 -9 -9 -9 -9 -9 -8 -8 -8 -8 -8 -8 -8 -8 -8 -8 -9 -9 -9 -10 -10 -9
-7 -8 -8 -7 -8 -9 -9 -10 -10 -11 -11 -11 -12 -11 -11 -11 -11 -11 -10 -10 -9 -8 -8 -8 -8 -8 -8 -8 -8 -8 -8 -9 -9 -9 -9 -9 -9 -10
-9 -9 -9 -10 -10 -10 -11 -12 -12 -12 -13 -13 -13 -13 -13 -13 -12 -12 -12 -11 -11 -10 -9 -9 -8 -8 -7 -8 -8 -8 -8 -9 -9 -9 -9 -9 -9 -9
-10 -11 -11 -12 -12 -13 -13 -14 -14 -14 -15 -15 -15 -15 -15 -14 -14 -13 -13 -13 -12 -11 -10 -9 -9 -8 -8 -8 -8 -8 -8 -9 -9 -9 -9 -10 -9 -9
-12 -12 -13 -13 -14 -14 -15 -15 -16 -16 -17 -17 -17 -17 -17 -16 -15 -15 -15 -14 -13 -12 -11 -11 -9 -8 -8 -8 -8 -8 -9 -9 -9 -9 -9 -10 -9 -9
-13 -14 -14 -15 -15 -16 -16 -17 -17 -18 -18 -18 -18 -18 -18 -18 -17 -17 -16 -16 -15 -13 -12 -11 -10 -9 -8 -8 -8 -8 -9 -9 -9 -9 -9 -10 -9 -9
-15 -16 -16 -16 -17 -17 -18 -18 -19 -19 -19 -19 -20 -19 -19 -19 -18 -18 -17 -17 -16 -15 -13 -12 -11 -11 -9 -9 -9 -9 -9 -9 -9 -9 -10 -10 -9 -9
-17 -17 -18 -18 -18 -19 -19 -19 -20 -20 -20 -20 -20 -20 -20 -20 -19 -19 -18 -17 -16 -16 -14 -13 -12 -11 -10 -9 -8 -9 -9 -10 -10 -10 -10 -10 -10 -9
-19 -19 -20 -20 -20 -20 -21 -21 -21 -21 -21 -21 -21 -21 -20 -20 -20 -19 -19 -18 -18 -16 -15 -14 -13 -12 -10 -9 -9 -10 -10 -10 -10 -10 -10 -9 -9 -9

GFSNE_850_temp_090.txt.gz
Temp
10 9 9 9 7 7 6 6 6 5 4 5 5 4 3 2 2 1 1 1 1 0 0 -0 -0 -1 -1 -1 -1 -1 -1 -2 -2 -3 -4 -4 -4 -5
9 9 9 8 8 7 5 6 6 5 4 4 4 3 3 2 2 1 1 1 0 -0 -0 -0 -1 -1 -1 -1 -2 -2 -2 -2 -3 -3 -4 -4 -4 -5
9 9 9 7 7 7 5 5 5 4 4 3 3 2 2 2 2 1 1 1 0 0 -0 -1 -1 -1 -1 -2 -2 -2 -3 -3 -3 -3 -4 -5 -5 -5
9 9 8 7 7 7 6 5 4 3 3 2 2 2 2 1 1 1 1 0 0 -1 -1 -1 -1 -2 -2 -3 -3 -3 -3 -4 -4 -4 -4 -4 -5 -5
8 8 8 8 7 6 5 4 4 3 2 1 2 1 1 1 1 0 -0 -0 -1 -1 -1 -1 -2 -2 -3 -3 -4 -4 -4 -4 -4 -4 -4 -5 -5 -6
8 8 8 7 7 6 4 3 2 2 1 1 1 1 1 0 -0 -0 -1 -1 -1 -1 -1 -1 -2 -2 -2 -3 -4 -4 -5 -5 -4 -5 -5 -6 -6 -6
8 8 6 5 5 4 3 2 2 0 0 0 1 0 -0 -1 -1 -1 -2 -2 -1 -1 -1 -2 -2 -2 -3 -3 -4 -5 -5 -5 -5 -6 -6 -6 -6 -6
8 7 5 4 3 2 2 1 -0 -1 -1 -0 -0 -1 -1 -2 -2 -2 -3 -3 -4 -3 -3 -4 -3 -3 -4 -4 -5 -5 -5 -5 -5 -6 -6 -6 -6 -7
5 4 3 4 3 2 0 -1 -1 -2 -2 -3 -2 -2 -2 -2 -3 -4 -4 -4 -5 -4 -5 -5 -4 -4 -4 -5 -6 -6 -6 -6 -6 -6 -6 -7 -7 -7
3 3 2 2 1 -1 -3 -2 -2 -3 -3 -3 -2 -3 -4 -4 -5 -6 -6 -5 -5 -5 -8 -7 -6 -6 -5 -6 -6 -6 -6 -6 -6 -7 -7 -7 -7 -8
3 2 1 -0 -2 -2 -2 -3 -3 -3 -3 -3 -4 -4 -6 -6 -6 -6 -6 -8 -7 -7 -9 -9 -7 -7 -7 -6 -6 -6 -6 -7 -7 -7 -7 -7 -8 -8
-1 -1 -2 -3 -3 -4 -5 -4 -4 -4 -4 -4 -5 -6 -6 -6 -6 -6 -7 -9 -9 -8 -7 -8 -8 -9 -8 -7 -7 -6 -6 -7 -7 -7 -7 -8 -8 -9
-3 -3 -4 -5 -6 -6 -5 -4 -5 -5 -6 -6 -6 -7 -6 -7 -7 -7 -8 -9 -9 -9 -9 -9 -9 -9 -9 -8 -8 -7 -7 -7 -7 -7 -8 -8 -9 -9
-5 -5 -6 -7 -6 -6 -7 -7 -8 -8 -8 -8 -8 -8 -8 -8 -8 -8 -9 -9 -9 -10 -9 -10 -9 -9 -9 -9 -9 -7 -7 -8 -9 -8 -8 -9 -9 -9
-5 -6 -8 -7 -7 -8 -10 -10 -10 -10 -10 -10 -11 -11 -11 -10 -10 -10 -10 -10 -10 -10 -10 -10 -10 -9 -9 -9 -9 -8 -8 -8 -8 -8 -9 -9 -9 -10
-7 -7 -7 -8 -9 -11 -11 -11 -11 -12 -12 -12 -12 -13 -13 -12 -12 -12 -12 -12 -11 -9 -10 -10 -10 -10 -9 -8 -8 -8 -8 -8 -8 -9 -9 -9 -9 -9
-9 -10 -10 -11 -11 -12 -12 -12 -13 -13 -13 -13 -14 -14 -14 -14 -14 -14 -13 -13 -13 -12 -10 -10 -10 -10 -9 -9 -8 -8 -9 -8 -8 -9 -9 -9 -9 -9
-11 -11 -12 -12 -13 -13 -13 -14 -14 -15 -15 -15 -16 -16 -16 -16 -16 -15 -15 -15 -15 -14 -13 -12 -11 -10 -9 -9 -9 -8 -9 -8 -8 -9 -9 -9 -9 -9
-12 -13 -13 -14 -14 -15 -15 -15 -16 -16 -17 -17 -17 -18 -18 -18 -18 -17 -17 -17 -16 -15 -14 -13 -13 -13 -13 -11 -9 -8 -8 -8 -8 -9 -9 -9 -9 -9
-14 -15 -15 -15 -16 -16 -17 -17 -17 -18 -18 -19 -19 -19 -19 -19 -19 -19 -18 -18 -17 -16 -15 -14 -14 -14 -14 -13 -12 -9 -8 -8 -9 -9 -9 -9 -9 -9
-17 -17 -17 -18 -18 -18 -19 -19 -19 -20 -20 -20 -20 -20 -21 -21 -20 -20 -19 -19 -18 -18 -17 -15 -15 -14 -13 -13 -12 -10 -9 -9 -9 -9 -9 -10 -10 -10
-19 -19 -19 -20 -20 -20 -20 -21 -21 -21 -21 -21 -21 -21 -21 -21 -21 -21 -20 -20 -19 -19 -18 -16 -15 -14 -13 -13 -11 -9 -9 -9 -9 -9 -9 -10 -10 -9
-21 -21 -21 -22 -22 -22 -22 -22 -22 -22 -22 -22 -22 -22 -22 -21 -21 -21 -21 -20 -20 -19 -19 -17 -16 -15 -14 -13 -11 -10 -9 -10 -10 -10 -10 -10 -10 -10

GFSNE_850_temp_096.txt.gz
Temp
9 10 10 10 10 10 9 9 6 6 6 6 8 9 8 7 7 6 5 5 5 4 3 3 3 3 2 2 2 1 1 1 0 -0 -1 -1 -1 -1
8 8 9 10 10 10 9 9 8 5 5 6 7 8 7 7 6 6 5 4 4 3 2 2 2 2 1 1 1 1 0 -0 -0 -1 -1 -1 -2 -2
9 10 10 10 9 9 8 8 8 7 5 6 8 6 6 7 6 5 4 3 2 2 2 2 1 1 1 1 1 0 0 -0 -1 -1 -1 -2 -2 -2
11 10 10 9 8 7 8 8 8 7 7 6 7 5 5 6 6 5 3 2 1 1 1 1 1 1 1 1 0 0 -0 -1 -1 -1 -1 -2 -2 -3
10 9 9 9 7 7 8 8 7 6 7 7 6 5 4 4 4 2 1 1 -0 -1 -1 1 1 1 0 0 0 -0 -1 -1 -1 -1 -2 -2 -3 -3
10 9 9 9 8 8 7 7 7 7 7 6 6 4 4 3 2 1 -0 -0 -1 -2 -3 -1 -0 0 0 0 0 -0 -0 -0 -1 -1 -2 -2 -3 -4
9 8 8 7 7 7 6 6 5 5 4 4 3 2 2 2 0 -0 -1 -2 -2 -3 -4 -3 -1 -0 0 0 1 0 -0 -1 -1 -1 -2 -2 -3 -4
7 7 7 6 6 6 5 5 4 4 3 3 1 1 0 -0 -1 -1 -2 -3 -4 -5 -5 -4 -3 -3 -1 -1 -0 -1 -1 -1 -2 -2 -2 -3 -4 -4
7 6 5 5 4 4 4 3 2 2 2 1 0 -0 -1 -2 -3 -3 -4 -6 -6 -6 -6 -5 -5 -5 -4 -3 -2 -2 -2 -3 -3 -3 -4 -4 -4 -5
6 5 4 3 2 1 1 1 -0 -0 -1 -1 -2 -3 -4 -5 -5 -6 -6 -7 -7 -6 -6 -6 -6 -5 -6 -6 -6 -6 -6 -5 -4 -4 -4 -5 -5 -6
3 2 0 -0 -1 -2 -2 -3 -3 -3 -3 -3 -3 -3 -3 -4 -6 -8 -8 -8 -7 -6 -7 -7 -7 -6 -6 -6 -6 -6 -6 -6 -6 -6 -5 -5 -6 -6
-1 -2 -3 -3 -3 -3 -3 -3 -3 -3 -3 -4 -4 -5 -6 -7 -7 -8 -9 -9 -8 -8 -8 -8 -7 -7 -7 -6 -6 -6 -6 -6 -7 -7 -6 -6 -6 -7
-3 -3 -3 -3 -4 -4 -4 -4 -5 -6 -6 -7 -8 -8 -9 -9 -9 -9 -10 -10 -10 -10 -10 -10 -10 -9 -9 -8 -7 -7 -7 -6 -6 -6 -7 -6 -7 -7
-4 -4 -5 -5 -6 -6 -7 -7 -8 -9 -9 -10 -10 -10 -11 -11 -11 -12 -11 -11 -12 -12 -11 -11 -12 -11 -11 -10 -9 -8 -8 -7 -7 -7 -7 -7 -7 -7
-6 -6 -7 -7 -8 -9 -9 -10 -10 -11 -11 -11 -12 -12 -12 -13 -13 -13 -13 -13 -13 -13 -13 -14 -13 -13 -13 -11 -10 -9 -9 -8 -7 -7 -7 -7 -7 -8
-8 -9 -9 -10 -10 -11 -11 -11 -12 -13 -13 -13 -13 -14 -14 -14 -15 -15 -15 -14 -14 -13 -13 -13 -13 -13 -13 -12 -11 -10 -9 -9 -8 -7 -7 -8 -7 -8
-11 -11 -11 -11 -11 -12 -12 -12 -13 -13 -14 -14 -15 -15 -15 -15 -15 -15 -15 -15 -15 -14 -14 -13 -14 -14 -14 -13 -13 -12 -11 -10 -9 -8 -7 -8 -8 -8
-12 -13 -13 -13 -13 -14 -14 -14 -15 -15 -16 -16 -16 -16 -17 -17 -17 -17 -17 -16 -16 -15 -15 -15 -15 -14 -14 -13 -13 -12 -11 -10 -10 -9 -8 -7 -8 -8
-14 -15 -15 -15 -16 -16 -16 -16 -17 -17 -18 -18 -18 -18 -18 -18 -18 -18 -18 -17 -17 -17 -16 -16 -16 -15 -14 -13 -12 -12 -12 -12 -11 -9 -8 -8 -8 -8
-16 -16 -17 -17 -18 -18 -18 -19 -19 -19 -20 -20 -20 -20 -20 -20 -19 -19 -19 -19 -19 -18 -18 -17 -16 -16 -15 -15 -16 -15 -14 -13 -12 -10 -8 -8 -8 -8
-18 -18 -19 -19 -20 -20 -20 -20 -21 -21 -21 -21 -21 -21 -21 -21 -20 -20 -20 -20 -20 -19 -18 -18 -17 -18 -17 -17 -16 -15 -13 -12 -12 -11 -9 -8 -8 -9
-20 -20 -20 -21 -21 -21 -21 -21 -21 -22 -22 -22 -22 -22 -22 -21 -21 -21 -21 -20 -20 -19 -19 -19 -18 -18 -17 -16 -16 -15 -14 -13 -11 -10 -9 -8 -8 -8
-21 -21 -22 -22 -22 -22 -22 -22 -23 -23 -23 -23 -23 -22 -22 -22 -22 -21 -21 -21 -20 -20 -20 -19 -19 -18 -17 -17 -16 -15 -15 -13 -11 -9 -9 -9 -9 -9